Weather History for Beaufort MCAS, SC

Change the Weather History Date:

Friday, June 13, 2014

  Actual Average Record
Temperature  
Mean Temperature 81 °F -  
Max Temperature 91 °F 87 °F 102 °F (2011)
Min Temperature 72 °F 69 °F 58 °F (1966)
Cooling Degree Days 16    
Growing Degree Days 31 (Base 50)    
Moisture  
Dew Point 70 °F    
Average Humidity 72    
Maximum Humidity 91    
Minimum Humidity 43    
Precipitation  
Precipitation 0.00 in - - ()
Sea Level Pressure  
Sea Level Pressure 29.90 in    
Wind  
Wind Speed 7 mph (West)    
Max Wind Speed 14 mph    
Max Gust Speed 31 mph    
Visibility 10 miles    
Events      
Averages and records for this station are not official NWS values.
T = Trace of Precipitation, MM = Missing Value Source: NWS Daily Summary

Daily Weather History Graph

Daily Weather History Graph

Search for Another Location

Airport:

Trip Planner

Search our weather history database for the weather conditions in past years. The results will help you decide how hot, cold, wet, or windy it might be!

Date:

Astronomy

Jun. 13, 2014 Rise Set
Actual Time 6:15 AM EDT 8:31 PM EDT
Civil Twilight 5:46 AM EDT 8:59 PM EDT
Nautical Twilight 5:11 AM EDT 9:34 PM EDT
Astronomical Twilight 4:34 AM EDT 10:11 PM EDT
Moon 9:05 PM EDT (6/13) 6:48 AM EDT (6/13)
Length of Visible Light 15h 12m
Length of Day
14h 15m
Full, 100% of the Moon is Illuminated
Jun 13
Full
Jun 19
Last Quarter
Jun 27
New
Jul 5
First Quarter
Jul 12
Full

Hourly Weather History & Observations

Time (EDT) Temp. Heat Index Dew Point Humidity Pressure Visibility Wind Dir Wind Speed Gust Speed Precip Events Conditions
12:56 AM 73.0 °F - 70.0 °F 90% 29.90 in 9.0 mi WSW 4.6 mph - N/A   Clear
1:56 AM 73.0 °F - 70.0 °F 90% 29.89 in 10.0 mi WSW 4.6 mph - N/A   Clear
2:56 AM 73.9 °F - 71.1 °F 91% 29.88 in 10.0 mi West 8.1 mph - N/A   Partly Cloudy
3:56 AM 73.9 °F - 70.0 °F 87% 29.88 in 10.0 mi WNW 10.4 mph - N/A   Partly Cloudy
4:56 AM 73.0 °F - 70.0 °F 90% 29.88 in 10.0 mi West 10.4 mph - N/A   Clear
5:56 AM 73.0 °F - 70.0 °F 90% 29.88 in 10.0 mi WNW 8.1 mph - N/A   Clear
6:56 AM 72.0 °F - 69.1 °F 91% 29.90 in 10.0 mi WNW 5.8 mph - N/A   Scattered Clouds
7:56 AM 73.9 °F - 70.0 °F 87% 29.91 in 10.0 mi West 5.8 mph - N/A   Clear
8:56 AM 79.0 °F - 70.0 °F 74% 29.93 in 10.0 mi WNW 5.8 mph - N/A   Partly Cloudy
9:56 AM 82.0 °F 85.5 °F 69.1 °F 65% 29.93 in 10.0 mi WNW 8.1 mph - N/A   Partly Cloudy
10:56 AM 84.0 °F 87.0 °F 68.0 °F 58% 29.93 in 10.0 mi NW 9.2 mph - N/A   Scattered Clouds
11:56 AM 84.9 °F 87.6 °F 66.9 °F 55% 29.92 in 10.0 mi WNW 10.4 mph - N/A   Mostly Cloudy
12:56 PM 88.0 °F 90.3 °F 66.0 °F 48% 29.91 in 10.0 mi West 13.8 mph - N/A   Scattered Clouds
1:56 PM 89.1 °F 91.3 °F 66.0 °F 46% 29.89 in 7.0 mi West 13.8 mph 31.1 mph N/A   Mostly Cloudy
2:56 PM 90.0 °F 91.7 °F 64.9 °F 43% 29.88 in 10.0 mi NW 12.7 mph 17.3 mph N/A   Mostly Cloudy
3:56 PM 88.0 °F 89.3 °F 64.0 °F 45% 29.88 in 10.0 mi WNW 11.5 mph - N/A   Mostly Cloudy
5:56 PM 87.1 °F 93.6 °F 72.0 °F 61% 29.86 in 10.0 mi WSW 9.2 mph 19.6 mph N/A   Mostly Cloudy
6:56 PM 84.9 °F 90.1 °F 71.1 °F 63% 29.86 in 10.0 mi WSW 9.2 mph - N/A   Clear
7:56 PM 82.9 °F 87.5 °F 71.1 °F 67% 29.87 in 10.0 mi WSW 6.9 mph - N/A   Clear
8:56 PM 81.0 °F 85.2 °F 72.0 °F 74% 29.88 in 10.0 mi SW 4.6 mph - N/A   Clear
9:56 PM 80.1 °F 83.8 °F 72.0 °F 76% 29.90 in 10.0 mi Calm Calm - N/A   Clear
10:56 PM 79.0 °F - 73.9 °F 84% 29.92 in 10.0 mi Calm Calm - N/A   Clear
11:56 PM 78.1 °F - 73.9 °F 87% 29.92 in 10.0 mi West 5.8 mph - N/A   Partly Cloudy